Weather History for KMRB - June, 2013

Change the Weather History Date:

Sunday, June 16, 2013

  Actual Average Record
Temperature  
Mean Temperature 71 °F 71 °F  
Max Temperature 81 °F 82 °F 99 °F (1991)
Min Temperature 61 °F 59 °F 39 °F (1933)
Degree Days  
Heating Degree Days 0 1  
Month to date heating degree days 2 22  
Since 1 June heating degree days 2 22  
Since 1 July heating degree days 4908 5247  
Cooling Degree Days 6 6  
Month to date cooling degree days 97 74  
Year to date cooling degree days 208 131  
Since 1 June cooling degree days 97 74  
Growing Degree Days 20 (Base 50)    
Moisture  
Dew Point 60 °F    
Average Humidity 72    
Maximum Humidity 90    
Minimum Humidity 54    
Precipitation  
Precipitation T in 0.13 in 1.56 in (2010)
Month to date precipitation 2.78 2.05  
Year to date precipitation 14.04 17.78  
Sea Level Pressure  
Sea Level Pressure 29.96 in    
Wind  
Wind Speed 6 mph (SW)    
Max Wind Speed 18 mph    
Max Gust Speed 22 mph    
Visibility 10 miles    
Events      
T = Trace of Precipitation, MM = Missing Value Source: NWS Daily Summary

Daily Weather History Graph

Daily Weather History Graph

Search for Another Location

Airport or City:

Trip Planner

Search our weather history database for the weather conditions in past years. The results will help you decide how hot, cold, wet, or windy it might be!

Date:

Astronomy

Jun. 16, 2013 Rise Set
Actual Time 5:44 AM EDT 8:41 PM EDT
Civil Twilight 5:12 AM EDT 9:13 PM EDT
Nautical Twilight 4:31 AM EDT 9:54 PM EDT
Astronomical Twilight 3:43 AM EDT 10:41 PM EDT
Moon 1:16 PM EDT (6/16) 12:46 AM EDT (6/16)
Length of Visible Light 16h 01m
Length of Day
14h 56m
Waxing Crescent, 49% of the Moon is Illuminated
Jun 16
Waxing Crescent
Jun 16
First Quarter
Jun 23
Full
Jun 30
Last Quarter
Jul 8
New

Hourly Weather History & Observations

Time (EDT) Temp. Heat Index Dew Point Humidity Pressure Visibility Wind Dir Wind Speed Gust Speed Precip Events Conditions
12:53 AM 63.0 °F - 55.9 °F 78% 30.04 in 10.0 mi Calm Calm - N/A   Clear
1:53 AM 62.1 °F - 57.0 °F 84% 30.02 in 10.0 mi Calm Calm - N/A   Partly Cloudy
2:53 AM 61.0 °F - 55.9 °F 83% 30.03 in 10.0 mi Calm Calm - N/A   Partly Cloudy
3:53 AM 62.1 °F - 55.9 °F 80% 30.01 in 10.0 mi Calm Calm - N/A   Mostly Cloudy
4:53 AM 62.1 °F - 57.0 °F 84% 30.01 in 10.0 mi Calm Calm - N/A   Mostly Cloudy
5:53 AM 61.0 °F - 57.0 °F 87% 30.01 in 10.0 mi Calm Calm - N/A   Clear
6:53 AM 62.1 °F - 57.9 °F 86% 30.01 in 10.0 mi Calm Calm - N/A   Overcast
7:53 AM 63.0 °F - 57.0 °F 81% 30.00 in 10.0 mi Calm Calm - 0.00 in   Overcast
8:53 AM 68.0 °F - 57.9 °F 70% 29.99 in 10.0 mi Calm Calm - N/A   Mostly Cloudy
9:53 AM 72.0 °F - 60.1 °F 66% 29.98 in 10.0 mi SSE 4.6 mph - N/A   Overcast
10:53 AM 75.0 °F - 60.1 °F 60% 29.96 in 10.0 mi SSW 6.9 mph - N/A   Mostly Cloudy
11:53 AM 77.0 °F - 62.1 °F 60% 29.94 in 10.0 mi South 8.1 mph - N/A   Scattered Clouds
12:53 PM 78.1 °F - 64.9 °F 64% 29.92 in 10.0 mi Variable 4.6 mph - N/A   Mostly Cloudy
1:53 PM 79.0 °F - 62.1 °F 56% 29.91 in 10.0 mi WSW 12.7 mph - N/A   Clear
2:53 PM 78.1 °F - 62.1 °F 58% 29.91 in 10.0 mi SW 9.2 mph - N/A   Partly Cloudy
3:53 PM 80.1 °F 81.5 °F 63.0 °F 56% 29.90 in 10.0 mi SW 11.5 mph 17.3 mph N/A   Partly Cloudy
4:53 PM 79.0 °F - 63.0 °F 58% 29.90 in 10.0 mi SW 10.4 mph - 0.00 in   Overcast
5:53 PM 80.1 °F 81.2 °F 62.1 °F 54% 29.91 in 10.0 mi WSW 13.8 mph - N/A   Overcast
6:53 PM 78.1 °F - 62.1 °F 58% 29.91 in 10.0 mi West 13.8 mph - N/A   Clear
7:53 PM 78.1 °F - 61.0 °F 56% 29.92 in 10.0 mi West 13.8 mph - N/A   Clear
8:53 PM 75.0 °F - 61.0 °F 62% 29.93 in 10.0 mi West 9.2 mph - N/A   Clear
9:53 PM 73.9 °F - 60.1 °F 62% 29.94 in 10.0 mi SW 6.9 mph - N/A   Clear
10:53 PM 73.0 °F - 60.1 °F 64% 29.95 in 10.0 mi SW 4.6 mph - N/A   Clear
11:53 PM 72.0 °F - 60.1 °F 66% 29.94 in 10.0 mi South 4.6 mph - N/A   Clear